Wind_Speed
10 18 21 18 19 22 25 28 32 34 30 29 30 29 19 34 35 31 27 27 28 37 36 30 28 33 36 35 37 46 37 34 38 36 35 31 30 37 46 50 52 40 38 38
16 22 17 15 18 23 24 26 32 32 31 27 29 31 28 21 30 34 31 28 31 34 36 38 32 35 35 38 38 46 45 32 32 34 29 30 27 37 29 33 53 55 50 41
20 22 21 24 25 26 28 28 30 30 28 29 31 35 33 32 24 29 34 34 27 37 37 33 36 38 35 37 33 43 41 28 30 31 31 28 33 30 41 38 41 49 54 46
24 21 21 24 26 26 33 25 24 29 31 22 21 21 34 24 32 32 29 29 42 29 33 30 30 33 43 42 38 41 43 36 36 30 26 27 33 33 34 33 48 55 56 58
26 24 27 29 28 29 31 29 27 29 29 25 26 23 29 26 35 31 33 30 28 35 28 28 31 41 47 49 48 50 48 36 41 35 36 39 40 37 37 40 30 46 66 70
26 23 26 30 33 33 33 29 28 30 24 13 32 27 33 32 30 33 34 34 32 38 39 36 32 39 42 42 41 43 46 46 46 41 42 43 43 49 45 43 42 28 40 49
30 29 21 29 33 33 35 39 11 14 11 11 36 25 29 42 31 27 33 40 35 40 38 36 35 39 40 36 30 27 29 22 28 33 39 42 44 43 48 50 42 30 34 35
22 19 25 21 23 17 21 18 10 6 3 7 23 26 42 34 22 25 20 25 35 36 33 32 30 23 15 14 13 16 16 18 22 28 31 34 38 42 40 44 46 41 38 36
25 24 25 21 17 20 8 13 16 25 16 10 19 37 33 27 26 17 2 16 21 25 23 18 19 20 20 16 12 12 17 20 21 20 26 30 32 36 39 46 45 48 46 37
15 20 15 15 14 13 14 14 11 5 4 5 6 19 18 11 11 26 16 12 24 23 24 25 24 26 24 20 20 23 27 24 20 20 20 21 23 26 33 41 44 48 49 52
21 20 20 23 24 19 22 21 19 20 11 4 2 6 2 2 4 5 26 11 18 19 20 25 29 28 25 17 19 20 20 18 17 17 15 17 20 22 25 29 36 44 51 53
15 13 17 16 16 20 12 10 12 5 5 13 4 14 19 22 15 15 8 22 9 16 16 19 22 23 24 25 26 22 20 23 23 23 24 22 24 23 26 26 24 25 28 35
15 10 12 16 10 9 18 18 19 14 12 15 8 8 12 21 26 15 22 19 20 10 24 17 22 24 26 28 27 30 33 29 29 29 28 24 29 31 28 21 22 23 24 26
16 18 14 15 22 22 24 24 25 23 10 22 24 35 17 16 19 18 20 19 25 29 26 21 23 23 29 28 29 28 28 29 33 33 30 32 35 37 36 29 23 23 25 27
13 15 15 21 23 23 27 26 26 26 31 26 33 32 26 26 28 28 28 24 20 31 35 29 31 31 29 29 29 27 23 22 25 30 33 31 31 31 30 27 24 27 29 29
18 17 17 21 20 23 26 25 25 28 30 29 27 28 5 14 17 20 19 28 25 22 20 33 35 45 46 32 29 26 27 29 32 37 39 40 40 38 37 36 33 30 28 31
18 15 17 25 16 22 18 13 15 13 17 20 25 24 27 28 27 22 21 11 17 18 27 32 35 26 28 26 28 32 34 38 40 43 46 49 52 51 49 44 42 41 38 35
15 12 14 20 18 4 5 25 14 9 9 12 11 13 19 13 17 19 22 25 31 28 31 28 34 36 28 39 42 46 48 48 49 49 52 53 56 61 59 57 51 49 49 44
13 12 12 4 8 19 10 11 13 14 17 19 16 15 24 25 24 20 21 28 28 30 32 28 33 30 32 40 41 45 49 54 56 57 60 63 63 60 62 65 64 59 58 53
13 17 17 9 6 3 7 16 19 20 23 13 20 34 39 43 43 39 37 37 41 43 43 46 45 46 46 47 50 55 58 57 62 67 67 63 61 60 60 59 57 55 52 56
10 16 22 18 13 9 16 23 25 8 17 32 39 43 44 42 41 45 44 44 42 45 47 47 48 50 50 51 53 58 62 65 64 61 53 50 51 53 52 50 48 47 45 46
7 6 5 13 7 4 21 34 27 30 36 43 42 44 46 47 46 43 48 49 46 47 47 49 51 52 53 55 55 60 62 59 54 51 45 45 46 41 40 39 38 39 39 43
3 11 10 9 11 23 22 33 34 40 42 41 48 47 43 45 47 49 51 52 54 54 51 45 44 45 48 49 50 52 50 45 40 37 38 37 35 32 31 29 30 32 34 37
11 16 17 24 19 32 28 32 30 33 39 45 42 46 42 50 52 54 54 56 58 47 40 36 37 39 39 37 36 35 34 31 32 32 33 29 26 20 19 22 22 26 27 31
19 21 22 27 31 30 26 29 37 38 40 37 40 43 51 53 57 57 57 49 40 36 34 32 31 31 32 30 30 27 25 27 27 27 26 22 19 20 24 22 20 24 25 28
13 21 26 35 29 30 35 43 36 38 44 43 51 53 55 50 44 41 38 32 31 31 29 30 31 31 30 29 25 23 23 25 26 25 18 18 18 14 32 25 24 26 25 25
Wind_Direction
260 261 265 282 270 273 273 274 279 281 282 287 283 281 270 259 241 234 239 249 248 248 234 230 234 237 247 249 247 251 248 235 236 231 247 256 240 225 229 234 238 246 241 241
276 262 279 274 272 268 271 278 282 286 284 289 290 285 273 278 248 252 246 247 258 243 237 238 235 243 249 247 247 251 258 251 247 238 228 242 237 238 228 228 233 239 247 249
270 274 284 284 285 283 279 276 280 291 287 284 285 282 273 270 260 246 244 243 255 252 253 239 244 238 244 247 244 243 253 232 230 238 229 224 234 234 236 231 230 233 238 245
276 281 281 284 287 283 285 280 284 284 282 277 276 277 273 273 260 259 264 261 238 255 240 231 229 236 244 251 248 244 247 246 232 223 224 221 230 229 231 240 242 241 240 238
268 273 274 283 286 288 294 277 269 267 274 287 282 287 276 272 265 266 260 281 249 236 227 224 228 228 234 243 250 254 255 252 233 230 236 242 238 238 227 230 262 239 238 247
268 280 274 278 280 278 291 304 272 265 267 272 269 268 277 273 273 271 264 267 249 229 233 234 224 222 231 239 247 252 261 261 240 245 242 241 240 239 235 244 250 255 248 250
272 269 265 287 291 287 275 302 326 271 249 247 263 260 258 265 258 276 278 256 251 216 217 219 223 229 235 252 261 255 250 254 241 235 237 239 243 244 244 240 237 246 247 253
305 292 296 299 287 283 291 273 217 276 247 285 282 251 258 266 282 264 297 242 215 205 211 221 232 246 243 239 258 271 280 275 248 238 238 242 240 239 242 240 231 232 246 259
307 293 284 296 279 292 285 270 288 248 267 283 273 274 280 285 284 249 157 235 200 201 203 211 202 206 213 233 247 261 263 265 275 253 240 238 239 239 239 235 233 233 239 250
299 301 289 279 294 294 303 283 277 213 228 236 239 280 274 314 267 227 279 230 192 187 189 195 205 206 219 230 248 255 264 271 265 248 244 242 239 240 236 237 240 239 236 239
309 284 283 296 280 287 292 283 293 264 240 251 264 246 205 253 202 268 263 226 229 229 234 228 226 229 240 242 251 261 266 268 269 274 266 256 238 239 238 236 236 238 242 245
294 288 293 296 303 289 282 288 325 278 325 312 318 257 274 284 277 263 273 209 170 247 228 232 238 243 237 242 244 239 250 259 264 264 260 264 280 257 242 242 240 240 241 239
275 272 309 307 296 264 313 320 305 321 311 275 256 270 298 298 301 290 253 232 201 219 196 223 237 244 257 258 252 253 242 244 252 256 258 246 255 264 266 255 240 246 253 254
278 277 274 267 279 295 296 291 293 282 240 253 257 277 300 289 272 274 280 277 258 246 227 236 242 248 251 252 249 253 259 270 262 261 262 240 244 253 262 262 255 252 250 247
284 278 279 282 287 294 293 290 289 281 285 250 282 282 290 277 279 283 283 283 282 252 250 261 250 251 225 240 259 256 260 261 264 268 268 262 261 268 278 282 268 257 258 260
271 283 299 296 289 292 297 290 283 282 282 284 287 285 290 321 263 277 264 252 261 259 251 254 258 260 252 243 232 235 237 247 256 264 276 281 281 278 275 272 270 269 264 259
272 274 300 294 308 307 306 344 311 307 282 285 302 299 284 302 292 275 273 262 230 258 250 250 254 260 250 230 236 240 242 246 249 254 265 276 279 279 277 272 268 266 262 262
265 262 280 286 307 249 291 314 303 323 323 308 349 0 7 333 302 296 276 267 269 272 268 268 257 247 256 252 259 259 255 255 257 261 269 273 276 278 276 272 264 261 259 256
257 255 265 260 277 289 347 350 12 305 312 303 300 308 318 305 287 282 296 277 281 271 268 273 257 264 253 255 254 257 259 265 267 268 270 272 276 273 268 270 271 266 257 251
216 234 246 274 274 260 312 310 308 319 288 287 308 316 312 306 303 299 290 282 278 276 271 271 270 269 266 262 258 259 262 267 275 272 270 274 272 268 268 268 266 263 256 244
257 221 235 245 250 266 280 315 322 324 300 306 308 307 307 299 295 296 298 294 288 285 282 277 272 268 268 271 272 271 272 273 273 272 275 270 268 269 267 265 259 256 248 237
300 226 244 240 239 286 309 314 328 318 311 309 306 304 297 293 291 290 294 288 286 286 285 284 281 276 272 269 267 267 268 271 274 275 272 265 267 268 267 260 256 251 240 229
340 342 316 296 283 306 300 310 315 308 304 302 304 306 301 297 292 292 288 287 288 289 286 282 278 274 270 269 268 268 269 270 269 267 264 265 267 266 261 248 254 239 219 218
302 301 296 308 316 308 316 312 306 303 305 310 308 306 303 301 296 294 291 289 290 289 282 280 276 272 270 265 263 263 266 264 260 256 257 266 263 251 250 246 239 215 205 213
298 309 313 318 330 317 334 324 322 318 321 314 315 311 307 302 297 292 290 289 287 283 278 276 275 274 268 264 261 262 260 258 249 253 263 268 247 229 241 224 207 211 209 211
309 321 327 321 329 321 331 330 330 327 327 326 320 312 307 305 300 296 292 289 283 280 273 270 275 275 271 270 267 258 258 252 250 258 255 259 255 235 224 219 217 214 213 215
Height
3095 3096 3094 3094 3094 3093 3093 3092 3089 3086 3088 3085 3082 3081 3079 3081 3083 3085 3087 3089 3091 3095 3096 3099 3098 3100 3102 3105 3113 3113 3117 3120 3123 3126 3129 3129 3132 3133 3137 3142 3146 3148 3150 3154
3094 3091 3090 3090 3090 3090 3088 3086 3083 3081 3080 3080 3077 3075 3075 3077 3076 3077 3080 3083 3085 3087 3090 3092 3094 3093 3095 3097 3104 3108 3109 3110 3114 3116 3120 3124 3124 3128 3130 3134 3139 3142 3144 3146
3089 3088 3088 3088 3087 3085 3083 3082 3081 3079 3077 3076 3073 3069 3069 3071 3071 3072 3075 3076 3078 3079 3081 3085 3085 3086 3087 3090 3094 3098 3100 3103 3105 3108 3110 3112 3116 3118 3123 3125 3128 3134 3138 3139
3084 3084 3084 3083 3081 3082 3077 3078 3076 3074 3073 3070 3071 3064 3064 3064 3064 3066 3067 3067 3069 3071 3073 3076 3078 3080 3080 3082 3084 3088 3093 3096 3099 3100 3104 3105 3109 3110 3114 3120 3123 3126 3127 3132
3079 3079 3078 3076 3076 3076 3073 3072 3070 3068 3065 3063 3062 3063 3056 3059 3057 3058 3060 3059 3062 3065 3067 3069 3071 3071 3072 3072 3075 3080 3085 3088 3090 3093 3095 3098 3100 3104 3106 3109 3110 3111 3116 3117
3073 3074 3074 3072 3068 3067 3066 3064 3062 3061 3058 3057 3055 3058 3053 3052 3053 3052 3050 3052 3055 3055 3056 3059 3062 3065 3066 3067 3070 3072 3072 3077 3081 3082 3085 3088 3090 3094 3096 3100 3102 3103 3106 3110
3064 3065 3067 3064 3061 3063 3061 3063 3063 3055 3052 3048 3045 3049 3046 3041 3045 3045 3042 3038 3044 3043 3046 3049 3054 3057 3061 3062 3063 3063 3064 3065 3069 3072 3075 3077 3080 3082 3085 3089 3094 3098 3102 3103
3057 3057 3062 3060 3058 3056 3056 3057 3062 3054 3050 3045 3041 3039 3034 3036 3038 3041 3039 3030 3032 3035 3039 3043 3047 3050 3053 3054 3056 3057 3058 3060 3061 3063 3064 3067 3069 3071 3075 3079 3083 3088 3093 3095
3054 3053 3055 3057 3052 3057 3051 3047 3049 3050 3045 3050 3039 3034 3034 3033 3033 3036 3035 3035 3033 3034 3036 3040 3043 3046 3046 3049 3050 3052 3053 3054 3056 3057 3057 3059 3060 3063 3067 3071 3075 3080 3082 3085
3052 3047 3050 3052 3050 3050 3046 3045 3047 3045 3045 3041 3034 3034 3031 3027 3026 3029 3033 3035 3031 3033 3035 3037 3040 3042 3045 3046 3048 3050 3051 3051 3051 3051 3052 3052 3054 3056 3058 3062 3065 3069 3072 3074
3048 3047 3045 3046 3045 3043 3042 3040 3040 3042 3040 3037 3034 3027 3026 3027 3026 3028 3027 3030 3032 3030 3032 3035 3037 3040 3041 3043 3044 3044 3044 3044 3044 3044 3045 3046 3048 3049 3051 3053 3056 3059 3063 3065
3045 3042 3040 3040 3040 3037 3036 3037 3036 3036 3036 3028 3029 3022 3024 3025 3024 3023 3025 3026 3023 3029 3030 3032 3034 3035 3035 3037 3037 3037 3039 3039 3039 3039 3040 3040 3040 3041 3044 3045 3047 3049 3051 3054
3039 3039 3036 3033 3035 3033 3031 3033 3032 3030 3029 3029 3031 3022 3023 3022 3019 3016 3020 3019 3018 3020 3019 3025 3027 3029 3030 3029 3030 3030 3030 3031 3032 3032 3033 3033 3033 3033 3034 3037 3040 3042 3043 3045
3036 3035 3036 3034 3032 3031 3027 3028 3027 3026 3023 3021 3017 3012 3014 3015 3016 3016 3016 3015 3018 3016 3020 3020 3022 3021 3023 3023 3023 3024 3023 3023 3023 3025 3026 3026 3026 3026 3026 3029 3030 3032 3034 3036
3033 3031 3031 3029 3027 3025 3023 3021 3020 3019 3014 3014 3011 3008 3010 3013 3012 3009 3008 3009 3009 3009 3013 3013 3013 3014 3011 3014 3018 3017 3016 3015 3016 3016 3016 3018 3020 3020 3020 3020 3022 3023 3024 3025
3029 3025 3025 3021 3021 3019 3016 3014 3013 3012 3009 3008 3005 3004 3006 3005 3003 3001 2998 2997 3002 3001 3004 3003 3001 2998 3002 3002 3005 3008 3007 3005 3004 3005 3006 3008 3010 3011 3011 3011 3012 3014 3015 3016
3024 3023 3022 3015 3017 3014 3011 3008 3006 3003 3004 3002 3000 3000 2995 2995 2994 2994 2991 2993 2992 2992 2993 2994 2993 2992 2994 2996 2999 2998 2998 2998 2997 2997 2998 2998 2999 2999 3000 3001 3002 3003 3004 3006
3019 3020 3021 3016 3015 3012 3005 3003 3000 2998 2999 2996 2995 2991 2988 2989 2989 2988 2987 2986 2985 2985 2985 2986 2987 2986 2987 2987 2985 2985 2985 2985 2986 2986 2987 2987 2986 2984 2984 2984 2987 2989 2991 2994
3017 3018 3018 3017 3013 3006 3001 3000 2997 2998 2997 2993 2989 2988 2987 2986 2986 2987 2980 2976 2975 2976 2975 2975 2976 2976 2975 2975 2974 2973 2972 2972 2972 2972 2972 2971 2971 2969 2966 2964 2965 2969 2974 2979
3014 3014 3016 3015 3012 3006 3000 2998 2997 2996 2991 2988 2985 2983 2979 2975 2971 2971 2971 2970 2968 2966 2964 2962 2962 2960 2960 2960 2962 2960 2959 2957 2954 2953 2951 2954 2951 2948 2945 2944 2945 2946 2950 2956
3011 3007 3008 3010 3008 3002 2996 2994 2993 2993 2991 2983 2981 2975 2971 2966 2963 2956 2954 2952 2951 2949 2945 2945 2945 2943 2942 2943 2941 2939 2938 2935 2934 2933 2934 2932 2930 2927 2926 2925 2926 2927 2931 2938
3009 3006 3004 3003 3002 2999 2996 2993 2991 2987 2980 2976 2970 2965 2958 2952 2947 2944 2939 2935 2933 2930 2929 2927 2923 2921 2921 2921 2920 2918 2916 2916 2917 2917 2915 2914 2912 2911 2910 2910 2910 2913 2918 2925
3009 3007 3006 3006 3002 2999 2994 2989 2986 2980 2972 2965 2959 2952 2946 2938 2932 2927 2921 2919 2915 2912 2910 2909 2904 2901 2902 2902 2901 2899 2900 2901 2900 2900 2900 2900 2900 2899 2898 2898 2900 2902 2908 2915
3006 3004 3003 3001 3000 2992 2988 2985 2979 2972 2964 2956 2948 2940 2933 2924 2917 2910 2905 2901 2896 2895 2892 2891 2888 2886 2885 2886 2885 2885 2886 2888 2887 2887 2888 2890 2888 2889 2890 2891 2893 2897 2903 2911
3002 3000 2997 2994 2990 2983 2982 2977 2969 2959 2954 2945 2938 2929 2920 2910 2900 2893 2886 2882 2880 2878 2878 2878 2875 2875 2875 2874 2873 2875 2875 2875 2876 2877 2878 2878 2879 2882 2885 2887 2890 2895 2900 2906
2999 2996 2993 2987 2984 2978 2973 2965 2958 2950 2942 2933 2924 2912 2903 2893 2882 2876 2871 2870 2867 2865 2866 2866 2865 2864 2864 2863 2864 2865 2865 2866 2867 2868 2870 2872 2871 2873 2878 2883 2886 2891 2896 2903